Location: *
(34.0486°S, 61.7880°E)
Time: 13:50:29
(UTC+00:00)

Cosmos 1242 Rocket - Pass Details

Date: 01 April 2020
Orbit: 449 x 486 km, 81.2° (Epoch: 04 June)

Event Time Altitude Azimuth Distance (km) Brightness Sun altitude
Rises 14:37:32 0° 5° (N) 2,507 6.1 -11.2°
Reaches altitude 10° 14:39:38 10° 11° (N) 1,646 5.1 -11.6°
Maximum altitude 14:43:07 47° 85° (E) 655 2.8 -12.4°
Drops below altitude 10° 14:46:41 10° 159° (SSE) 1,690 5.1 -13.1°
Sets 14:48:52 0° 165° (SSE) 2,585 6.1 -13.6°
